sat.trackr.live / text

‹ back to catalog

STARLINK-4426

NORAD 53484 · 2022-099V

PAYLOAD ACTIVE UNKNOWN

§ Identity

Operator
Country
US
Launch date
2022-08-12
Launch site
AFWTR
Launch vehicle
Mass (kg)
RCS (m²)

Purposes: comms

External: N2YO · Heavens-Above · Gunter

§ Orbital elements

Epoch: 2026-09-20T01:31:41.690208Z

Period
93.91 min
Inclination
97.2861°
Eccentricity
0.0000957
Mean motion
15.33435885 rev/d
Perigee alt
464.9 km
Apogee alt
466.2 km
Semi-major
6,843.7 km
B*
3.1072e-5
RAAN
20.7624°
Arg perigee
96.8113°
Mean anomaly
263.3238°
Rev number
22,548

§ Raw data

STARLINK-44261 53484U 22099V   26263.06367697  .00000928  00000+0  31072-4 0  99942 53484  97.2861  20.7624 0000957  96.8113 263.3238 15.33435885225482

JSON: /api/v1/satellites/53484 · /tle

For live sub-satellite position, see the globe view (requires WebGL).

§ Visibility from observer

Set your observer location to see the next 7 days of passes ≥ 10°. The values pass through the URL so the page stays shareable.

No JS? Fill the form by hand. The geolocation button needs JavaScript.